This is the latest recevied weather packets stored in our database for station/object N5ATR. If no packets are shown the sender has not sent any weather packets the latest 10 day(s).
| Time | Temp. | Humidity | Pressure | Rain* | Wind** | Luminosity | Snow |
|---|---|---|---|---|---|---|---|
| 1788677249 | 17.22° C | 51% | 1022.5 hPa | 0 mm | - | 0 W/m² | - |
| 1788676944 | 17.22° C | 50% | 1022.4 hPa | 0 mm | - | 0 W/m² | - |
| 1788676639 | 17.78° C | 49% | 1022.4 hPa | 0 mm | - | 0 W/m² | - |
| 1788676335 | 18.33° C | 48% | 1022.5 hPa | 0 mm | - | 0 W/m² | - |
| 1788676030 | 18.33° C | 47% | 1022.5 hPa | 0 mm | - | 0 W/m² | - |
| 1788675729 | 18.89° C | 46% | 1022.5 hPa | 0 mm | - | 0 W/m² | - |
| 1788675425 | 18.89° C | 46% | 1022.6 hPa | 0 mm | - | 0 W/m² | - |
| 1788675121 | 18.89° C | 44% | 1022.4 hPa | 0 mm | - | 0 W/m² | - |
| 1788674817 | 19.44° C | 44% | 1022.3 hPa | 0 mm | - | 0 W/m² | - |
| 1788674514 | 18.89° C | 45% | 1022.2 hPa | 0 mm | - | 0 W/m² | - |
| 1788674209 | 18.33° C | 47% | 1022.3 hPa | 0 mm | - | 0 W/m² | - |
| 1788673904 | 18.33° C | 46% | 1022.3 hPa | 0 mm | - | 0 W/m² | - |
| 1788673600 | 18.89° C | 46% | 1022.5 hPa | 0 mm | - | 0 W/m² | - |
| 1788673294 | 18.89° C | 45% | 1022.2 hPa | 0 mm | - | 0 W/m² | - |
| 1788672992 | 18.89° C | 45% | 1022.6 hPa | 0 mm | - | 0 W/m² | - |
| 1788672692 | 19.44° C | 44% | 1022.3 hPa | 0 mm | - | 0 W/m² | - |
| 1788672387 | 19.44° C | 44% | 1022.2 hPa | 0 mm | - | 0 W/m² | - |
| 1788672084 | 19.44° C | 44% | 1022.4 hPa | 0 mm | - | 0 W/m² | - |
| 1788671780 | 19.44° C | 45% | 1022.3 hPa | 0 mm | - | 0 W/m² | - |
| 1788671474 | 19.44° C | 46% | 1022.2 hPa | 0 mm | - | 0 W/m² | - |
| 1788671170 | 19.44° C | 47% | 1022.2 hPa | 0 mm | - | 0 W/m² | - |
| 1788670865 | 20° C | 47% | 1022.4 hPa | 0 mm | - | 0 W/m² | - |
| 1788670563 | 20° C | 46% | 1022.2 hPa | 0 mm | - | 0 W/m² | - |
| 1788670259 | 20.56° C | 44% | 1022.2 hPa | 0 mm | - | 0 W/m² | - |
| 1788669955 | 21.11° C | 43% | 1022 hPa | 0 mm | - | 0 W/m² | - |
* Rain latest hour (hover to see other rain measurements)
** Current wind speed in m/s (hover to see current wind gust speed)